Temp
65 65 66 65 65 66 66 65 64 65 66 67 67 68 67 68 69 70 71 75 75 74 74 73 73 72 72 71 71 71 71 70 70 70 70 70 70 70 70 70 70 70 70
65 65 66 65 64 66 66 65 64 64 64 66 66 67 67 67 68 68 70 73 75 74 73 73 73 73 72 72 71 71 71 70 70 70 70 69 69 69 70 70 70 70 70
65 67 65 64 65 65 65 64 64 63 63 65 64 65 66 66 67 67 67 69 72 73 73 73 73 73 72 72 71 71 70 70 70 70 69 69 69 69 69 69 69 69 69
68 66 63 63 65 65 65 64 63 62 63 63 62 63 64 65 66 66 66 67 67 69 73 73 73 73 73 72 72 71 70 70 69 69 69 69 69 69 69 69 69 69 69
68 64 63 63 64 65 64 65 63 63 61 61 62 62 63 63 64 67 65 65 65 67 67 73 73 73 73 72 72 72 71 70 69 69 69 69 69 69 69 69 69 69 69
66 63 63 63 66 65 63 62 62 62 63 62 67 64 62 62 63 63 64 66 64 65 66 66 68 71 73 73 72 72 71 70 70 69 69 68 69 69 69 69 69 69 69
65 63 63 64 64 62 61 61 61 62 61 61 61 60 61 62 62 63 64 63 64 65 64 65 65 66 69 72 72 72 72 72 71 69 68 68 68 69 69 69 69 69 68
64 63 62 63 62 61 61 61 61 60 60 59 59 58 58 60 61 62 62 63 63 64 65 65 65 64 65 67 69 71 72 72 72 70 69 68 68 68 69 69 68 68 68
63 63 63 63 60 59 59 59 59 59 59 58 58 59 54 56 58 61 62 62 63 62 63 63 64 64 64 65 67 69 71 71 72 71 70 69 69 69 69 69 68 68 67
63 63 63 62 60 59 59 58 60 58 58 58 58 59 58 59 57 56 59 61 62 62 61 62 63 63 64 64 66 67 67 69 69 70 71 70 69 69 69 69 68 67 67
61 63 62 62 60 59 59 58 58 58 58 59 58 57 56 57 56 56 57 58 61 62 63 62 61 63 62 63 63 64 67 68 68 68 69 69 69 69 69 68 67 67 67
59 60 62 61 60 59 58 59 58 58 58 58 58 57 58 58 57 56 55 56 58 62 62 63 61 62 63 63 65 66 65 65 66 66 67 67 68 68 68 67 67 67 66
58 59 59 59 59 59 58 58 57 57 58 58 57 57 57 57 56 57 57 57 58 60 59 62 62 63 64 64 65 67 68 65 65 65 64 65 65 66 66 66 66 65 65
59 59 59 59 59 59 59 58 58 58 58 57 57 56 57 57 56 58 58 58 56 57 57 60 61 62 63 64 65 66 63 64 64 63 63 63 63 64 65 65 64 64 63
61 60 60 59 60 59 59 58 58 58 59 58 57 57 56 57 58 58 59 60 59 55 56 59 57 59 61 62 61 60 62 62 63 63 63 62 62 62 63 63 63 62 62
60 61 60 60 60 60 60 59 58 57 58 58 59 55 55 56 58 58 59 59 58 58 56 58 59 58 62 61 61 60 60 62 61 62 62 62 61 61 61 61 61 61 61
63 62 62 62 61 60 61 58 57 58 57 57 58 57 56 56 55 58 58 58 56 57 53 57 57 60 60 59 56 55 59 60 60 60 61 60 59 59 59 59 59 59 60
64 63 63 62 62 61 61 60 58 61 57 57 57 56 56 58 56 55 56 56 56 57 56 52 53 55 57 55 54 56 59 62 60 60 60 59 58 58 57 57 57 57 57
62 62 63 61 61 62 61 60 60 60 58 59 58 57 57 56 56 57 56 55 55 56 53 51 52 53 54 53 52 55 56 56 58 59 58 57 56 56 56 56 56 56 55
62 61 61 61 61 61 62 61 60 60 58 58 59 58 58 56 55 53 53 53 53 52 51 51 51 50 50 51 51 53 54 54 54 56 56 55 55 54 54 54 55 56 55
62 62 61 60 60 60 61 60 60 59 59 58 59 59 59 59 60 56 54 54 53 52 51 50 49 47 48 48 48 49 50 52 52 50 53 55 54 55 55 54 56 55 53
61 61 60 60 60 61 56 55 58 58 58 57 57 58 58 59 60 57 57 57 55 52 50 49 50 50 50 50 47 49 50 50 51 51 51 55 51 55 54 55 52 51 51
60 60 60 60 60 60 53 52 54 59 58 59 58 58 58 58 57 58 56 55 54 54 55 53 51 52 50 49 46 44 45 49 51 53 49 50 51 51 54 55 51 51 51
59 59 60 59 59 60 52 50 52 57 57 58 59 59 58 58 57 56 54 53 53 53 53 54 55 54 55 53 50 49 49 48 50 50 49 48 50 50 55 55 50 51 50
59 59 59 59 59 59 51 49 52 56 56 56 58 58 57 56 52 50 53 52 52 52 53 53 52 51 49 48 49 52 51 50 51 51 47 49 50 52 53 52 54 51 50
58 58 58 58 57 58 52 48 50 56 56 55 56 56 52 54 48 47 53 52 50 51 53 54 54 50 48 50 49 53 53 51 50 50 50 50 50 51 52 52 53 54 55
MSLP
1019.45 1019.65 1019.61 1019.76 1019.94 1019.96 1020.08 1020.31 1020.68 1020.80 1020.96 1020.98 1021.16 1021.20 1021.21 1021.26 1021.29 1021.30 1021.22 1021.27 1021.35 1021.46 1021.65 1021.73 1021.78 1021.85 1021.96 1022.11 1022.14 1022.20 1022.24 1022.27 1022.20 1022.16 1022.11 1022.01 1021.90 1021.90 1021.77 1021.70 1021.56 1021.49 1021.40
1019.51 1019.57 1019.46 1019.78 1019.94 1020.00 1020.22 1020.45 1020.84 1021.02 1021.11 1021.20 1021.44 1021.48 1021.50 1021.57 1021.66 1021.72 1021.77 1021.66 1021.76 1021.82 1021.88 1021.87 1021.96 1021.97 1022.07 1022.26 1022.40 1022.41 1022.40 1022.44 1022.48 1022.47 1022.39 1022.36 1022.21 1022.13 1022.08 1022.06 1021.86 1021.76 1021.60
1019.44 1019.49 1019.51 1019.77 1019.92 1020.05 1020.30 1020.64 1021.09 1021.24 1021.34 1021.52 1021.78 1021.81 1021.77 1021.89 1021.96 1022.05 1022.09 1022.09 1021.99 1022.06 1022.12 1022.14 1022.22 1022.22 1022.34 1022.53 1022.69 1022.70 1022.68 1022.68 1022.69 1022.72 1022.67 1022.62 1022.55 1022.40 1022.38 1022.27 1022.30 1021.98 1021.86
1019.12 1019.28 1019.64 1019.84 1019.96 1020.03 1020.13 1020.19 1021.15 1021.34 1021.39 1021.59 1021.84 1021.97 1021.97 1022.11 1022.19 1022.28 1022.33 1022.37 1022.41 1022.32 1022.26 1022.38 1022.46 1022.44 1022.47 1022.66 1022.81 1022.89 1022.96 1022.95 1023.00 1022.97 1022.88 1022.81 1022.69 1022.64 1022.46 1022.37 1022.44 1022.14 1021.95
1019.10 1019.40 1019.70 1019.79 1019.90 1019.96 1019.99 1020.03 1020.74 1021.04 1021.32 1021.58 1021.83 1022.04 1022.06 1022.20 1022.26 1022.26 1022.32 1022.46 1022.45 1022.38 1022.30 1022.14 1022.34 1022.41 1022.46 1022.61 1022.80 1022.92 1023.02 1023.05 1023.06 1023.06 1023.01 1023.00 1022.78 1022.63 1022.44 1022.31 1022.25 1022.13 1021.96
1019.27 1019.57 1019.65 1019.69 1019.77 1020.03 1020.34 1020.40 1020.71 1020.86 1021.17 1021.34 1021.56 1021.92 1022.11 1022.16 1022.33 1022.37 1022.39 1022.37 1022.51 1022.50 1022.38 1022.30 1022.23 1022.30 1022.27 1022.39 1022.52 1022.64 1022.85 1023.02 1023.13 1023.14 1023.13 1023.08 1022.93 1022.77 1022.61 1022.32 1022.31 1021.94 1021.92
1019.36 1019.59 1019.68 1019.73 1019.75 1019.95 1020.31 1020.70 1020.88 1021.03 1021.24 1021.50 1021.88 1022.22 1022.25 1022.22 1022.28 1022.29 1022.43 1022.56 1022.49 1022.39 1022.49 1022.50 1022.52 1022.48 1022.34 1022.30 1022.51 1022.60 1022.63 1022.72 1022.81 1022.86 1023.03 1023.07 1022.94 1022.82 1022.56 1022.42 1022.31 1022.11 1022.12
1019.42 1019.61 1019.68 1019.74 1019.85 1020.11 1020.33 1020.70 1020.83 1021.04 1021.25 1021.41 1021.68 1022.16 1022.36 1022.35 1022.08 1021.99 1022.15 1022.18 1022.14 1022.30 1022.33 1022.37 1022.52 1022.45 1022.40 1022.48 1022.51 1022.46 1022.44 1022.49 1022.59 1022.81 1022.87 1022.97 1022.99 1022.83 1022.59 1022.27 1022.22 1022.18 1022.06
1019.47 1019.58 1019.68 1019.85 1020.09 1020.21 1020.35 1020.50 1020.74 1020.92 1021.15 1021.42 1021.48 1021.65 1022.16 1022.00 1022.01 1021.67 1021.70 1021.82 1021.94 1022.13 1022.14 1022.25 1022.30 1022.26 1022.19 1022.23 1022.35 1022.35 1022.13 1022.23 1022.17 1022.34 1022.58 1022.74 1022.76 1022.57 1022.29 1022.04 1022.03 1022.06 1021.98
1019.62 1019.59 1019.68 1019.92 1020.15 1020.18 1020.27 1020.40 1020.53 1020.81 1020.99 1021.19 1021.41 1021.37 1021.48 1021.49 1021.79 1021.83 1021.58 1021.43 1021.59 1021.65 1021.59 1021.64 1021.67 1021.72 1021.74 1021.79 1021.94 1021.99 1021.94 1022.01 1022.05 1022.16 1022.15 1022.32 1022.30 1022.18 1022.02 1021.93 1021.91 1021.78 1021.71
1019.54 1019.58 1019.69 1019.86 1019.99 1020.10 1020.26 1020.42 1020.60 1020.76 1020.81 1020.91 1021.16 1021.43 1021.48 1021.65 1021.67 1021.80 1021.64 1021.45 1021.36 1021.18 1021.06 1021.10 1021.14 1021.17 1021.28 1021.36 1021.57 1021.70 1021.70 1021.75 1021.74 1021.86 1021.87 1022.08 1021.96 1021.76 1021.69 1021.68 1021.70 1021.56 1021.37
1019.47 1019.47 1019.54 1019.77 1019.98 1020.10 1020.24 1020.32 1020.51 1020.59 1020.67 1020.79 1020.96 1021.02 1021.12 1021.31 1021.46 1021.52 1021.69 1021.44 1021.17 1020.93 1020.90 1020.78 1020.77 1020.73 1020.84 1020.96 1021.10 1021.23 1021.31 1021.17 1021.20 1021.37 1021.54 1021.75 1021.67 1021.57 1021.43 1021.43 1021.23 1021.28 1021.31
1019.08 1019.06 1019.24 1019.53 1019.80 1020.00 1020.10 1020.19 1020.29 1020.39 1020.53 1020.67 1020.77 1020.84 1020.91 1020.89 1021.10 1021.12 1021.18 1021.19 1021.00 1020.86 1020.85 1020.72 1020.47 1020.50 1020.54 1020.65 1020.75 1020.65 1020.63 1020.80 1020.63 1020.80 1021.05 1021.24 1021.39 1021.23 1021.26 1021.20 1021.11 1021.03 1021.24
1018.53 1018.56 1018.77 1019.03 1019.24 1019.47 1019.63 1019.78 1019.94 1020.11 1020.28 1020.35 1020.40 1020.55 1020.70 1020.72 1020.93 1020.85 1020.85 1020.85 1021.04 1020.95 1020.87 1020.71 1020.73 1020.67 1020.74 1020.75 1020.68 1020.55 1020.52 1020.50 1020.51 1020.52 1020.80 1020.93 1020.99 1020.89 1020.92 1020.92 1020.90 1020.93 1021.06
1018.36 1018.38 1018.45 1018.69 1018.83 1019.02 1019.18 1019.34 1019.53 1019.75 1019.84 1019.94 1020.06 1020.14 1020.42 1020.39 1020.46 1020.46 1020.41 1020.44 1020.46 1020.72 1020.73 1020.69 1020.88 1020.77 1020.69 1020.68 1020.70 1020.50 1020.57 1020.46 1020.25 1020.20 1020.37 1020.60 1020.64 1020.56 1020.57 1020.63 1020.75 1020.77 1020.76
1018.11 1018.04 1018.17 1018.31 1018.48 1018.55 1018.72 1019.04 1019.25 1019.35 1019.53 1019.58 1019.64 1019.86 1020.03 1020.04 1020.07 1020.20 1020.22 1020.22 1020.32 1020.39 1020.52 1020.43 1020.68 1020.62 1020.40 1020.40 1020.40 1020.41 1020.45 1020.31 1020.06 1020.14 1020.29 1020.39 1020.41 1020.39 1020.35 1020.39 1020.43 1020.39 1020.37
1017.65 1017.55 1017.51 1017.64 1017.92 1018.04 1018.13 1018.42 1018.69 1018.97 1019.19 1019.21 1019.29 1019.48 1019.53 1019.61 1019.77 1019.86 1020.03 1020.12 1020.16 1020.29 1020.38 1020.25 1020.47 1020.32 1020.28 1020.30 1020.46 1020.32 1020.61 1020.44 1020.36 1020.36 1020.42 1020.32 1020.25 1020.12 1020.06 1020.08 1019.99 1019.82 1019.73
1017.44 1017.26 1017.21 1017.23 1017.26 1017.38 1017.51 1017.72 1017.98 1018.20 1018.55 1018.73 1018.79 1018.93 1019.00 1019.29 1019.35 1019.56 1019.61 1019.81 1019.85 1019.92 1020.15 1020.27 1020.26 1020.27 1020.23 1020.32 1020.27 1020.55 1020.40 1020.31 1020.40 1020.14 1020.22 1020.16 1019.98 1019.86 1019.77 1019.67 1019.54 1019.35 1019.19
1016.58 1016.74 1016.86 1016.81 1016.80 1016.74 1016.81 1016.93 1017.21 1017.49 1017.56 1017.79 1018.01 1018.21 1018.32 1018.67 1018.80 1018.98 1019.16 1019.32 1019.52 1019.69 1019.93 1020.00 1020.01 1020.16 1020.14 1020.19 1020.39 1020.50 1020.44 1020.34 1020.20 1019.93 1020.00 1020.01 1019.81 1019.65 1019.53 1019.33 1019.19 1019.11 1018.97
1016.19 1016.29 1016.33 1016.35 1016.35 1016.32 1016.29 1016.30 1016.50 1016.69 1016.88 1017.04 1017.27 1017.45 1017.60 1017.76 1017.93 1018.27 1018.87 1018.78 1018.88 1019.12 1019.44 1019.63 1019.91 1020.05 1020.22 1020.08 1020.33 1020.44 1020.36 1020.43 1020.34 1019.93 1019.83 1019.71 1019.61 1019.43 1019.18 1019.02 1018.92 1018.75 1018.56
1015.82 1015.79 1015.82 1015.82 1015.87 1015.95 1015.92 1015.92 1016.02 1016.21 1016.41 1016.47 1016.57 1016.72 1016.77 1016.76 1016.90 1017.13 1017.64 1017.88 1018.21 1018.73 1019.15 1019.15 1019.56 1019.80 1019.99 1020.21 1020.23 1020.27 1020.29 1020.45 1020.30 1020.07 1019.73 1019.41 1019.35 1019.14 1018.91 1018.77 1018.64 1018.45 1018.33
1015.74 1015.71 1015.71 1015.67 1015.50 1015.40 1015.35 1015.38 1015.45 1015.53 1015.63 1015.85 1015.87 1015.84 1015.88 1015.92 1016.05 1016.22 1016.38 1016.81 1017.01 1017.02 1018.20 1018.51 1018.76 1019.10 1019.23 1019.44 1019.65 1020.12 1020.28 1020.35 1020.00 1019.94 1019.83 1019.17 1019.27 1018.95 1018.78 1018.67 1018.56 1018.30 1018.01
1015.53 1015.48 1015.45 1015.35 1015.17 1014.94 1014.75 1014.82 1014.72 1014.83 1014.87 1014.96 1015.01 1015.08 1015.09 1015.17 1015.31 1015.51 1015.72 1016.09 1016.54 1016.98 1017.22 1017.60 1017.98 1018.17 1018.46 1018.64 1019.23 1019.61 1019.86 1019.98 1019.61 1019.52 1019.80 1019.25 1019.06 1018.81 1018.48 1018.39 1018.29 1018.13 1017.89
1015.40 1015.20 1015.14 1015.02 1014.91 1014.47 1014.30 1014.33 1014.31 1014.40 1014.14 1014.23 1014.19 1014.20 1014.34 1014.45 1014.55 1014.83 1015.24 1015.49 1016.13 1016.37 1016.76 1017.02 1017.23 1017.30 1017.60 1017.89 1018.40 1018.73 1018.96 1019.28 1019.29 1019.41 1019.65 1019.38 1018.98 1018.58 1018.16 1018.08 1018.10 1018.10 1017.98
1015.16 1015.13 1014.93 1014.75 1014.63 1014.04 1013.75 1013.57 1013.80 1013.90 1013.80 1013.64 1013.33 1013.50 1013.78 1013.81 1013.95 1014.21 1014.63 1015.09 1015.52 1016.01 1016.18 1016.51 1016.69 1016.89 1017.14 1017.49 1017.86 1018.30 1018.58 1018.88 1018.72 1018.88 1019.38 1019.17 1018.83 1018.55 1018.28 1017.98 1017.84 1017.88 1017.72
1014.78 1014.63 1014.64 1014.24 1013.72 1013.74 1013.09 1012.95 1013.13 1013.21 1013.19 1013.12 1013.20 1012.93 1013.30 1013.19 1013.47 1013.62 1013.98 1014.53 1015.10 1015.51 1015.91 1016.04 1016.38 1016.63 1016.81 1016.90 1017.40 1017.39 1017.68 1017.99 1018.31 1018.41 1018.56 1018.85 1018.66 1018.73 1018.19 1017.97 1017.85 1017.68 1017.45
Wind_Speed
1 1 1 2 1 3 3 4 3 4 5 6 4 5 5 5 6 3 3 13 11 14 12 13 13 13 13 13 13 13 14 14 14 14 14 14 14 14 14 14 13 13 13
2 2 3 3 3 3 3 4 3 4 4 4 4 4 5 4 4 4 3 4 10 12 11 12 12 12 12 12 12 12 12 12 12 12 12 12 12 13 13 13 14 13 13
4 2 3 3 3 3 6 5 2 3 3 3 3 3 3 4 3 4 3 2 5 11 10 10 10 10 11 11 10 10 10 10 10 10 9 9 10 10 11 11 12 12 12
4 4 4 3 3 3 3 5 3 2 3 3 3 3 3 3 4 4 3 2 2 2 7 9 8 8 9 8 8 7 7 6 6 6 7 7 7 7 8 9 10 10 11
4 5 4 3 4 4 3 4 3 3 3 3 4 3 3 3 4 3 5 4 4 3 3 9 10 9 8 7 6 6 5 3 2 1 2 4 5 5 6 8 9 10 10
5 4 3 3 2 2 2 3 1 1 2 3 4 4 3 3 3 4 5 5 4 5 4 4 3 4 9 8 8 7 6 4 2 0 2 3 4 5 7 9 10 13 13
5 4 3 3 3 3 3 2 2 2 1 2 3 1 1 3 5 5 4 5 6 6 5 4 3 3 4 11 9 8 7 6 5 4 2 3 4 5 8 10 11 13 14
4 4 4 3 3 3 3 2 2 2 1 2 3 2 2 2 4 6 5 6 8 5 7 7 6 6 5 4 6 11 10 8 7 6 4 5 5 7 9 9 11 13 13
4 4 3 2 3 3 2 2 3 4 3 2 3 3 2 4 0 1 6 7 6 5 6 6 7 8 7 6 7 9 13 11 10 8 7 7 7 9 11 10 11 12 12
3 4 4 3 3 2 2 2 2 2 3 3 1 2 1 2 3 1 2 3 5 7 8 7 7 8 8 7 11 13 13 11 12 11 9 9 8 10 11 12 11 12 13
3 4 4 3 2 2 2 3 3 4 2 2 2 2 1 0 1 2 2 1 2 4 5 6 6 7 7 8 6 9 14 13 14 11 11 10 9 10 11 11 12 12 13
3 4 3 3 2 2 3 3 3 4 3 2 2 3 3 3 3 3 2 3 2 2 2 3 5 5 5 6 9 12 13 15 14 11 9 11 11 11 11 11 12 12 12
3 5 4 4 3 3 4 3 4 3 4 3 3 3 2 3 2 2 2 2 3 1 1 1 1 1 3 3 5 8 6 9 10 10 10 10 11 9 10 11 11 10 11
4 4 5 5 6 6 5 4 3 3 4 4 5 4 3 3 3 2 2 3 1 1 1 1 1 1 1 1 3 7 5 9 11 8 9 9 8 9 9 10 10 10 11
4 5 5 6 7 7 6 5 4 5 4 4 4 4 3 3 3 3 3 2 3 3 3 2 2 1 1 2 3 4 5 11 12 10 9 9 9 9 8 7 10 10 12
6 5 6 6 6 7 6 6 4 4 5 4 4 5 4 3 4 3 3 3 2 3 3 3 3 3 2 1 2 4 6 11 7 6 8 9 9 8 8 8 11 11 12
8 7 8 7 7 7 7 6 6 5 7 5 5 6 6 5 4 4 3 3 3 3 3 2 2 3 2 3 3 2 1 2 2 4 4 6 8 9 8 9 12 12 13
6 6 6 6 7 8 7 9 9 8 8 7 8 6 8 5 6 5 5 6 4 5 3 4 3 3 4 1 2 1 1 1 2 4 8 8 7 8 7 9 10 11 9
6 5 5 6 7 8 8 8 9 9 9 10 9 9 9 7 7 6 7 6 3 3 3 3 4 2 2 1 1 1 2 2 2 6 6 6 7 7 9 10 10 10 8
6 5 6 7 7 7 8 8 9 9 8 8 8 9 9 10 10 6 5 8 6 5 5 3 2 2 3 1 2 3 3 1 3 2 2 4 7 8 9 9 9 9 7
6 6 5 5 5 6 6 7 7 8 9 8 9 9 10 12 17 13 8 9 8 6 4 4 3 3 3 2 3 2 3 2 3 2 2 3 3 4 4 5 7 9 8
5 5 6 6 6 5 9 12 8 7 7 7 10 9 10 14 15 18 20 16 12 12 8 5 4 5 6 3 3 2 2 2 2 2 1 4 1 4 3 4 8 10 9
3 5 6 6 8 8 11 12 12 7 7 8 9 9 8 7 12 10 15 14 14 11 8 6 5 8 4 6 6 4 4 4 4 2 1 4 1 4 3 4 7 8 7
4 4 5 5 6 7 10 12 12 8 6 9 8 9 9 9 9 10 10 11 8 7 7 7 8 6 6 5 6 4 5 4 2 2 3 3 1 3 4 4 6 6 7
3 3 4 7 6 8 10 10 7 7 7 9 8 7 9 9 10 13 10 10 8 6 7 11 10 10 8 8 7 6 5 4 3 2 4 3 1 3 2 3 2 5 7
5 3 6 5 6 9 11 9 8 5 7 6 5 6 12 9 10 14 11 8 7 6 5 4 3 3 6 8 14 10 6 6 3 2 4 5 3 1 2 1 3 4 4
Wind_Direction
97 113 113 80 79 100 104 103 113 116 119 127 110 111 104 100 106 95 87 108 111 99 101 100 101 97 93 87 84 81 77 73 68 66 64 61 57 50 47 42 40 29 26
149 173 128 104 76 92 110 106 143 143 134 126 130 133 128 122 116 104 87 117 119 120 120 118 114 110 104 103 100 94 88 79 73 68 62 57 53 47 41 37 36 31 24
179 156 108 113 106 100 107 97 104 118 116 111 140 155 151 142 133 124 127 113 136 141 140 132 123 117 113 110 107 102 96 88 80 72 66 60 53 46 37 32 26 28 25
151 119 124 136 135 124 144 126 149 135 145 162 166 179 175 179 171 167 164 163 161 170 164 157 149 140 132 129 124 118 113 101 83 69 57 51 47 37 31 21 11 13 11
125 128 146 151 165 170 171 134 147 162 172 175 187 187 193 203 202 195 191 200 203 198 188 186 179 177 168 159 157 155 155 151 145 85 30 16 17 17 14 7 358 353 350
132 141 136 134 112 89 92 92 139 98 130 174 194 181 199 205 225 234 230 210 220 228 223 217 207 199 195 192 187 185 183 183 199 142 24 15 9 13 12 5 360 0 347
156 152 135 131 133 121 111 131 136 141 132 130 111 40 272 233 230 226 225 236 233 230 235 242 229 218 227 216 217 218 213 209 206 203 241 297 323 345 349 353 352 354 348
160 155 157 162 127 122 108 132 149 127 126 178 133 114 185 270 244 228 220 229 234 226 237 235 232 226 226 239 242 236 235 234 232 233 236 267 300 316 327 339 343 341 342
172 161 188 157 149 132 163 172 170 169 186 180 202 150 137 224 273 198 231 230 229 220 235 236 236 233 226 229 238 247 245 244 245 249 252 265 290 304 311 324 332 332 331
219 191 198 174 186 170 194 214 182 185 155 190 190 178 177 150 186 278 252 252 231 235 237 232 233 234 229 226 230 236 245 256 260 265 260 271 289 314 323 323 325 324 326
226 229 204 193 212 204 233 211 196 201 192 166 179 168 137 76 91 154 256 279 211 233 244 240 233 235 238 228 223 239 250 250 255 254 258 267 285 303 316 316 320 323 326
231 235 228 200 223 230 228 225 221 220 206 198 197 183 187 172 192 172 209 229 230 236 247 293 254 231 237 230 229 236 240 238 247 244 238 261 272 290 307 310 314 318 323
224 230 210 212 217 227 229 221 216 220 210 200 191 213 201 199 174 172 170 203 221 245 249 346 333 213 212 204 205 218 245 258 236 231 230 245 262 277 295 306 305 308 313
227 215 212 210 216 220 222 212 204 223 216 213 204 200 204 192 190 185 183 164 211 267 283 244 17 108 166 247 264 276 296 279 269 246 253 249 259 271 287 298 292 292 295
242 231 217 214 221 223 219 207 211 219 205 205 210 196 215 218 214 211 197 198 178 210 235 194 193 224 225 256 270 266 276 273 274 267 248 251 258 262 274 281 276 278 283
227 222 217 214 218 220 214 205 216 217 214 210 201 194 202 208 213 202 201 190 196 192 221 195 202 227 240 254 326 359 311 299 293 291 283 255 262 274 282 286 281 274 274
219 216 216 210 214 216 205 195 208 217 215 217 216 207 213 204 201 200 193 194 202 198 215 199 219 227 255 310 28 79 219 20 13 12 356 331 326 306 295 292 287 280 268
243 234 224 220 214 216 210 205 212 212 211 220 216 206 219 208 212 207 200 211 206 202 189 214 207 228 232 200 91 302 307 24 12 356 324 332 326 314 312 300 301 295 287
227 232 226 225 226 219 210 211 216 217 211 218 218 208 218 203 217 208 206 203 193 198 210 173 200 217 257 102 336 279 290 315 340 326 324 321 320 319 306 296 299 291 284
233 229 228 232 228 227 224 222 218 221 220 226 225 218 215 205 215 193 215 209 183 183 194 179 190 200 232 233 170 227 238 311 300 305 311 321 323 322 317 313 307 299 296
234 229 233 231 235 234 230 223 219 232 231 226 231 229 228 221 214 202 202 205 187 193 192 177 198 177 211 188 201 193 213 261 255 247 311 304 321 326 318 318 316 315 306
270 263 260 261 258 240 230 222 215 216 220 228 244 241 235 230 230 216 212 209 192 183 191 188 205 212 215 202 149 200 222 232 256 174 257 296 350 315 306 308 310 315 307
278 266 265 253 257 253 246 248 232 226 230 230 237 242 239 231 225 228 214 189 184 188 199 184 199 208 200 188 153 180 197 227 231 176 192 283 298 296 295 309 320 334 342
317 302 285 268 264 268 260 258 250 236 224 233 240 239 243 237 217 202 192 187 192 193 216 216 220 212 214 170 181 185 199 213 224 230 195 256 320 282 316 306 293 284 318
341 304 297 301 280 291 259 253 242 235 239 239 229 238 236 229 212 195 184 188 186 207 207 221 218 221 209 180 184 169 197 196 227 220 186 229 224 289 305 302 299 295 307
248 294 275 260 272 281 288 253 209 218 238 250 241 227 228 222 207 188 185 180 186 191 197 212 219 218 215 211 192 203 188 209 206 249 180 202 180 256 294 241 284 293 314